Weather History for Oscoda, MI

Change the Weather History Date:

Wednesday, March 19, 2014

  Actual Average Record
Temperature  
Mean Temperature 32 °F -  
Max Temperature 38 °F 37 °F 74 °F (2012)
Min Temperature 27 °F 21 °F 10 °F (1997)
Degree Days  
Heating Degree Days 32    
Moisture  
Dew Point 32 °F    
Average Humidity 91    
Maximum Humidity 96    
Minimum Humidity 79    
Precipitation  
Precipitation 0.00 in - - ()
Sea Level Pressure  
Sea Level Pressure 29.67 in    
Wind  
Wind Speed 5 mph (South)    
Max Wind Speed 17 mph    
Max Gust Speed 26 mph    
Visibility 5 miles    
Events Fog , Rain    
Averages and records for this station are not official NWS values.
T = Trace of Precipitation, MM = Missing Value Source: NWS Daily Summary

Daily Weather History Graph

Daily Weather History Graph

Search for Another Location

Airport:

Trip Planner

Search our weather history database for the weather conditions in past years. The results will help you decide how hot, cold, wet, or windy it might be!

Date:

Astronomy

Mar. 19, 2014 Rise Set
Actual Time 7:38 AM EDT 7:44 PM EDT
Civil Twilight 7:09 AM EDT 8:13 PM EDT
Nautical Twilight 6:35 AM EDT 8:47 PM EDT
Astronomical Twilight 6:00 AM EDT 9:22 PM EDT
Moon 11:10 PM EDT (3/19) 8:56 AM EDT (3/19)
Length of Visible Light 13h 04m
Length of Day
12h 06m
Waning Gibbous, 91% of the Moon is Illuminated
Mar 19
Waning Gibbous
Mar 23
Last Quarter
Mar 30
New
Apr 7
First Quarter
Apr 15
Full

Hourly Weather History & Observations

Time (EDT) Temp. Windchill Dew Point Humidity Pressure Visibility Wind Dir Wind Speed Gust Speed Precip Events Conditions
12:13 AM 32.0 °F - 28.2 °F 86% 29.94 in 10.0 mi Calm Calm - N/A   Clear
12:34 AM 31.1 °F 27.7 °F 28.2 °F 89% 29.94 in 10.0 mi NE 3.5 mph - N/A   Clear
12:54 AM 30.2 °F 25.4 °F 27.5 °F 90% 29.93 in 7.0 mi NE 4.6 mph - N/A   Clear
1:13 AM 30.0 °F 25.2 °F 27.3 °F 90% 29.93 in 7.0 mi NE 4.6 mph - N/A   Clear
1:34 AM 29.3 °F 24.3 °F 26.6 °F 90% 29.93 in 7.0 mi NE 4.6 mph - N/A   Clear
1:53 AM 28.8 °F 23.7 °F 26.4 °F 91% 29.93 in 7.0 mi NE 4.6 mph - N/A   Clear
2:14 AM 27.9 °F 21.5 °F 25.5 °F 91% 29.91 in 7.0 mi NE 5.8 mph - N/A   Clear
2:34 AM 28.4 °F 23.3 °F 25.9 °F 90% 29.90 in 7.0 mi ENE 4.6 mph - N/A   Clear
2:53 AM 28.6 °F 22.4 °F 26.4 °F 92% 29.89 in 7.0 mi ENE 5.8 mph - N/A   Clear
3:14 AM 31.5 °F 24.9 °F 28.4 °F 88% 29.88 in 7.0 mi ENE 6.9 mph - N/A   Mostly Cloudy
3:34 AM 32.0 °F 26.4 °F 29.1 °F 89% 29.87 in 7.0 mi ENE 5.8 mph - N/A   Overcast
3:53 AM 32.2 °F 25.8 °F 28.8 °F 87% 29.85 in 10.0 mi East 6.9 mph - N/A   Overcast
4:14 AM 32.0 °F 25.6 °F 29.1 °F 89% 29.83 in 7.0 mi East 6.9 mph - N/A   Overcast
4:34 AM 32.0 °F 24.8 °F 29.3 °F 90% 29.82 in 7.0 mi ENE 8.1 mph - N/A   Overcast
4:53 AM 32.2 °F 24.4 °F 29.1 °F 88% 29.80 in 7.0 mi ENE 9.2 mph - N/A   Overcast
5:14 AM 32.0 °F 24.8 °F 28.9 °F 88% 29.78 in 7.0 mi ENE 8.1 mph - N/A   Overcast
5:34 AM 32.4 °F 26.0 °F 28.6 °F 86% 29.77 in 10.0 mi East 6.9 mph - N/A   Overcast
5:53 AM 32.5 °F 26.2 °F 29.1 °F 87% 29.76 in 10.0 mi East 6.9 mph - N/A   Overcast
6:14 AM 32.9 °F 25.9 °F 29.5 °F 87% 29.75 in 5.0 mi East 8.1 mph - N/A   Overcast
6:34 AM 32.9 °F 26.7 °F 30.2 °F 90% 29.74 in 7.0 mi East 6.9 mph - N/A   Overcast
6:54 AM 33.1 °F 26.9 °F 30.6 °F 90% 29.73 in 7.0 mi East 6.9 mph - N/A   Overcast
7:14 AM 33.3 °F 26.4 °F 30.7 °F 90% 29.72 in 7.0 mi ESE 8.1 mph - N/A   Overcast
7:34 AM 33.4 °F 26.6 °F 30.9 °F 90% 29.72 in 7.0 mi ESE 8.1 mph - N/A   Overcast
7:54 AM 33.8 °F 27.7 °F 30.9 °F 89% 29.70 in 7.0 mi ESE 6.9 mph - N/A   Overcast
8:14 AM 33.8 °F 28.6 °F 31.1 °F 90% 29.69 in 7.0 mi ESE 5.8 mph - N/A   Overcast
8:34 AM 33.6 °F 29.4 °F 31.5 °F 92% 29.68 in 3.0 mi ESE 4.6 mph - N/A   Overcast
8:54 AM 33.8 °F 29.6 °F 31.6 °F 92% 29.67 in 4.0 mi ESE 4.6 mph - N/A   Overcast
9:14 AM 33.8 °F 30.8 °F 32.0 °F 93% 29.66 in 3.0 mi ESE 3.5 mph - N/A   Overcast
9:34 AM 33.8 °F 30.8 °F 32.0 °F 93% 29.65 in 3.0 mi ESE 3.5 mph - N/A   Overcast
9:54 AM 34.2 °F 31.2 °F 32.2 °F 92% 29.65 in 3.0 mi ESE 3.5 mph - N/A Rain Light Rain
10:14 AM 34.7 °F 31.8 °F 32.9 °F 93% 29.63 in 2.5 mi East 3.5 mph - N/A   Light Drizzle
10:34 AM 35.1 °F - 33.3 °F 93% 29.63 in 2.5 mi Calm Calm - N/A   Overcast
10:54 AM 35.6 °F - 33.8 °F 93% 29.62 in 2.5 mi Calm Calm - N/A   Overcast
11:14 AM 35.8 °F 33.0 °F 33.8 °F 92% 29.61 in 3.0 mi ESE 3.5 mph - N/A Rain Rain
11:33 AM 36.0 °F - 34.0 °F 93% 29.61 in 2.5 mi Calm Calm - N/A   Drizzle
11:54 AM 36.0 °F - 34.0 °F 93% 29.60 in 3.0 mi Calm Calm - N/A   Overcast
12:14 PM 36.1 °F - 34.2 °F 93% 29.60 in 3.0 mi Calm Calm - N/A   Overcast
12:33 PM 36.3 °F - 34.2 °F 92% 29.59 in 3.0 mi Calm Calm - N/A   Overcast
12:54 PM 37.6 °F 35.1 °F 35.6 °F 93% 29.58 in 4.0 mi South 3.5 mph - N/A   Light Drizzle
1:14 PM 38.3 °F 35.9 °F 36.0 °F 91% 29.57 in 3.0 mi South 3.5 mph - N/A   Light Drizzle
1:33 PM 38.3 °F - 36.3 °F 93% 29.56 in 2.5 mi Calm Calm - N/A Rain Rain
1:54 PM 38.5 °F 35.0 °F 36.7 °F 93% 29.55 in 2.0 mi South 4.6 mph - N/A   Overcast
2:14 PM 38.3 °F 34.8 °F 36.5 °F 93% 29.55 in 1.0 mi SSW 4.6 mph - N/A   Overcast
2:33 PM 38.3 °F 35.9 °F 36.7 °F 94% 29.54 in 0.8 mi SSW 3.5 mph - N/A Rain Rain
2:54 PM 38.3 °F 35.9 °F 36.9 °F 95% 29.53 in 0.8 mi SW 3.5 mph - N/A   Light Drizzle
3:14 PM 38.3 °F 33.9 °F 36.7 °F 94% 29.53 in 1.0 mi SW 5.8 mph - N/A   Overcast
3:33 PM 37.4 °F 34.9 °F 36.1 °F 95% 29.52 in 0.5 mi SW 3.5 mph - N/A Fog Fog
3:54 PM 37.8 °F 35.3 °F 36.5 °F 95% 29.52 in 0.8 mi SW 3.5 mph - N/A Rain Light Rain
4:14 PM 38.3 °F 35.9 °F 36.9 °F 95% 29.52 in 0.5 mi SSW 3.5 mph - N/A Rain Light Rain
4:33 PM 38.3 °F 35.9 °F 37.0 °F 95% 29.52 in 0.5 mi SW 3.5 mph - N/A Rain Light Rain
4:54 PM 37.8 °F 34.2 °F 36.5 °F 95% 29.52 in 1.0 mi SW 4.6 mph - N/A Rain Light Rain
5:14 PM 37.0 °F 32.4 °F 36.0 °F 96% 29.52 in 0.8 mi WSW 5.8 mph - N/A Rain Light Rain
5:33 PM 37.4 °F 33.8 °F 36.3 °F 96% 29.51 in 1.0 mi WSW 4.6 mph - N/A   Overcast
5:54 PM 37.4 °F 32.8 °F 36.3 °F 96% 29.52 in 2.0 mi West 5.8 mph - N/A   Overcast
6:14 PM 38.3 °F 32.5 °F 37.0 °F 95% 29.53 in 5.0 mi West 8.1 mph - N/A   Overcast
6:33 PM 37.9 °F 33.5 °F 36.7 °F 95% 29.53 in 5.0 mi West 5.8 mph - N/A   Overcast
6:54 PM 37.6 °F 33.1 °F 36.5 °F 96% 29.54 in 4.0 mi West 5.8 mph - N/A   Overcast
7:14 PM 37.4 °F 32.1 °F 35.8 °F 94% 29.55 in 4.0 mi WSW 6.9 mph - N/A   Overcast
7:33 PM 36.9 °F 32.2 °F 35.6 °F 95% 29.55 in 3.0 mi West 5.8 mph - N/A Rain Light Rain
7:54 PM 37.4 °F 32.8 °F 36.1 °F 95% 29.55 in 1.5 mi West 5.8 mph - N/A   Overcast
8:14 PM 37.4 °F 32.1 °F 36.1 °F 95% 29.55 in 3.0 mi West 6.9 mph - N/A Rain Light Rain
8:34 PM 38.1 °F 32.3 °F 36.7 °F 95% 29.56 in 7.0 mi West 8.1 mph - N/A   Overcast
8:54 PM 37.6 °F 31.6 °F 35.8 °F 93% 29.57 in 10.0 mi West 8.1 mph - N/A   Drizzle
9:14 PM 37.6 °F 29.1 °F 35.2 °F 91% 29.58 in 10.0 mi West 13.8 mph 20.7 mph N/A   Drizzle
9:34 PM 36.7 °F 26.9 °F 33.6 °F 89% 29.60 in 10.0 mi WNW 17.3 mph 26.5 mph N/A   Light Drizzle
9:54 PM 36.0 °F 26.7 °F 32.0 °F 86% 29.61 in 10.0 mi West 15.0 mph 21.9 mph N/A   Overcast
10:14 PM 34.9 °F 24.9 °F 31.8 °F 89% 29.61 in 10.0 mi West 16.1 mph - N/A   Overcast
10:34 PM 34.5 °F 24.8 °F 31.1 °F 87% 29.63 in 10.0 mi West 15.0 mph - N/A   Overcast
10:54 PM 34.2 °F 24.4 °F 29.5 °F 83% 29.64 in 10.0 mi WNW 15.0 mph 24.2 mph N/A   Overcast
11:14 PM 34.2 °F 24.8 °F 28.9 °F 81% 29.64 in 10.0 mi West 13.8 mph - N/A   Overcast
11:34 PM 34.0 °F 24.6 °F 28.6 °F 81% 29.64 in 10.0 mi West 13.8 mph 17.3 mph N/A   Overcast
11:54 PM 33.8 °F 24.3 °F 28.0 °F 79% 29.65 in 10.0 mi West 13.8 mph 18.4 mph N/A   Overcast